Stanton, MN

5:09 AM CDT on May 23, 2018 (GMT -0500)
Stanton

Weather History for KSYN - June, 2013

Change the Weather History Date:

Monday, June 17, 2013

  Actual Average (KLVN) Record (KLVN)
Temperature  
Mean Temperature 70 °F -  
Max Temperature 81 °F 78 °F 92 °F (1949)
Min Temperature 59 °F 55 °F 42 °F (1950)
Cooling Degree Days 5    
Growing Degree Days 20 (Base 50)    
Moisture  
Dew Point 53 °F    
Average Humidity 55    
Maximum Humidity 80    
Minimum Humidity 33    
Precipitation  
Precipitation 0.00 in - - ()
Sea Level Pressure  
Sea Level Pressure 29.92 in    
Wind  
Wind Speed 6 mph (WNW)    
Max Wind Speed 17 mph    
Max Gust Speed 24 mph    
Visibility 10 miles    
Events      
Averages and records for this station are not official NWS values.
T = Trace of Precipitation, MM = Missing Value Source: NWS Daily Summary

Daily Weather History Graph

Daily Weather History Graph

Search for Another Location

Airport or City:

Astronomy

Jun. 17, 2013 Rise Set
Actual Time 5:26 AM CDT 8:59 PM CDT
Civil Twilight 4:50 AM CDT 9:36 PM CDT
Nautical Twilight 4:01 AM CDT 10:24 PM CDT
Astronomical Twilight 2:58 AM CDT 11:28 PM CDT
Moon 2:27 PM CDT (6/17) 1:16 AM CDT (6/17)
Length of Visible Light 16h 46m
Length of Day
15h 32m
First Quarter, 60% of the Moon is Illuminated
Jun 17
First Quarter
Jun 23
Full
Jun 29
Last Quarter
Jul 8
New
Jul 15
First Quarter

Hourly Weather History & Observations

Time (CDT) Temp. Dew Point Humidity Pressure Visibility Wind Dir Wind Speed Gust Speed Precip Events Conditions
12:14 AM 63.7 °F 54.3 °F 72% 29.88 in 10.0 mi South 3.5 mph - N/A   Clear
12:33 AM 64.4 °F 54.1 °F 69% 29.88 in 10.0 mi Calm Calm - N/A   Clear
12:53 AM 63.5 °F 54.5 °F 72% 29.89 in 10.0 mi Calm Calm - N/A   Clear
1:13 AM 63.0 °F 54.3 °F 73% 29.88 in 10.0 mi Calm Calm - N/A   Clear
1:33 AM 63.0 °F 54.1 °F 73% 29.88 in 10.0 mi Calm Calm - N/A   Clear
1:54 AM 63.3 °F 53.6 °F 71% 29.88 in 10.0 mi SW 4.6 mph - N/A   Clear
2:13 AM 63.5 °F 53.1 °F 69% 29.88 in 10.0 mi SSW 4.6 mph - N/A   Clear
2:33 AM 64.0 °F 52.9 °F 67% 29.88 in 10.0 mi South 4.6 mph - N/A   Clear
2:54 AM 64.0 °F 53.1 °F 67% 29.88 in 10.0 mi SW 4.6 mph - N/A   Clear
3:13 AM 65.3 °F 53.6 °F 66% 29.88 in 10.0 mi SW 6.9 mph - N/A   Clear
3:33 AM 64.8 °F 53.4 °F 67% 29.88 in 10.0 mi SW 3.5 mph - N/A   Clear
3:54 AM 65.3 °F 53.4 °F 65% 29.88 in 10.0 mi WSW 4.6 mph - N/A   Clear
4:13 AM 63.5 °F 53.6 °F 70% 29.88 in 10.0 mi WSW 3.5 mph - N/A   Clear
4:33 AM 62.6 °F 53.6 °F 72% 29.88 in 10.0 mi SW 4.6 mph - N/A   Clear
4:54 AM 61.9 °F 53.8 °F 75% 29.89 in 10.0 mi SW 3.5 mph - N/A   Clear
5:13 AM 61.0 °F 53.6 °F 77% 29.89 in 10.0 mi Calm Calm - N/A   Clear
5:33 AM 60.3 °F 53.4 °F 78% 29.89 in 10.0 mi SSW 3.5 mph - N/A   Clear
5:54 AM 59.9 °F 53.8 °F 80% 29.89 in 10.0 mi Calm Calm - N/A   Clear
6:13 AM 60.3 °F 54.1 °F 80% 29.89 in 10.0 mi Calm Calm - N/A   Clear
6:33 AM 61.7 °F 54.9 °F 78% 29.90 in 10.0 mi SSW 3.5 mph - N/A   Scattered Clouds
6:53 AM 63.1 °F 55.2 °F 75% 29.90 in 10.0 mi SSW 3.5 mph - N/A   Scattered Clouds
7:13 AM 64.6 °F 57.0 °F 76% 29.92 in 10.0 mi SSW 4.6 mph - N/A   Clear
7:34 AM 66.6 °F 56.8 °F 71% 29.92 in 10.0 mi WSW 3.5 mph - N/A   Clear
7:53 AM 68.0 °F 56.7 °F 67% 29.93 in 10.0 mi West 3.5 mph - N/A   Clear
8:13 AM 69.3 °F 57.2 °F 65% 29.93 in 10.0 mi West 3.5 mph - N/A   Clear
8:33 AM 71.1 °F 58.1 °F 63% 29.93 in 10.0 mi West 4.6 mph - N/A   Clear
8:54 AM 72.3 °F 57.6 °F 60% 29.93 in 10.0 mi West 4.6 mph - N/A   Clear
9:13 AM 74.3 °F 56.5 °F 54% 29.93 in 10.0 mi NW 6.9 mph - N/A   Clear
9:34 AM 75.9 °F 54.3 °F 47% 29.93 in 10.0 mi WNW 12.7 mph - N/A   Clear
9:53 AM 76.3 °F 52.9 °F 44% 29.93 in 10.0 mi WNW 10.4 mph - N/A   Clear
10:13 AM 76.5 °F 51.6 °F 42% 29.93 in 10.0 mi West 9.2 mph - N/A   Clear
10:34 AM 77.2 °F 52.5 °F 42% 29.93 in 10.0 mi WNW 9.2 mph - N/A   Scattered Clouds
10:53 AM 77.5 °F 51.1 °F 40% 29.93 in 10.0 mi WNW 11.5 mph 17.3 mph N/A   Scattered Clouds
11:13 AM 77.9 °F 51.6 °F 40% 29.94 in 10.0 mi West 11.5 mph - N/A   Scattered Clouds
11:34 AM 77.9 °F 51.6 °F 40% 29.95 in 10.0 mi West 13.8 mph - N/A   Scattered Clouds
11:53 AM 78.1 °F 50.7 °F 38% 29.94 in 10.0 mi WNW 12.7 mph 23.0 mph N/A   Scattered Clouds
12:13 PM 79.2 °F 52.7 °F 40% 29.95 in 10.0 mi WNW 16.1 mph 20.7 mph N/A   Scattered Clouds
12:33 PM 77.9 °F 50.2 °F 38% 29.94 in 10.0 mi West 12.7 mph 21.9 mph N/A   Scattered Clouds
12:54 PM 78.3 °F 51.8 °F 40% 29.94 in 10.0 mi West 16.1 mph - N/A   Scattered Clouds
1:13 PM 79.3 °F 50.9 °F 37% 29.94 in 10.0 mi West 10.4 mph 20.7 mph N/A   Scattered Clouds
1:33 PM 80.4 °F 50.9 °F 36% 29.93 in 10.0 mi WNW 13.8 mph - N/A   Scattered Clouds
1:54 PM 80.4 °F 48.6 °F 33% 29.93 in 10.0 mi WNW 17.3 mph 23.0 mph N/A   Scattered Clouds
2:13 PM 80.1 °F 49.8 °F 35% 29.93 in 10.0 mi NW 15.0 mph 21.9 mph N/A   Scattered Clouds
2:33 PM 80.4 °F 50.0 °F 34% 29.93 in 10.0 mi West 16.1 mph - N/A   Scattered Clouds
2:54 PM 79.3 °F 49.8 °F 36% 29.93 in 10.0 mi WNW 16.1 mph 24.2 mph N/A   Scattered Clouds
3:13 PM 80.6 °F 50.0 °F 34% 29.93 in 10.0 mi West 11.5 mph 23.0 mph N/A   Scattered Clouds
3:33 PM 79.7 °F 49.8 °F 35% 29.92 in 10.0 mi WNW 11.5 mph 23.0 mph N/A   Clear
3:53 PM 81.0 °F 49.6 °F 33% 29.92 in 10.0 mi West 13.8 mph 19.6 mph N/A   Clear
4:13 PM 80.6 °F 50.0 °F 34% 29.91 in 10.0 mi WNW 10.4 mph 17.3 mph N/A   Clear
4:33 PM 80.8 °F 48.7 °F 33% 29.91 in 10.0 mi WNW 17.3 mph 21.9 mph N/A   Clear
4:53 PM 80.8 °F 51.1 °F 35% 29.91 in 10.0 mi WNW 16.1 mph - N/A   Clear
5:14 PM 80.6 °F 49.6 °F 34% 29.91 in 10.0 mi NW 15.0 mph - N/A   Clear
5:33 PM 80.6 °F 50.7 °F 35% 29.91 in 10.0 mi NNW 11.5 mph 18.4 mph N/A   Scattered Clouds
5:53 PM 80.6 °F 50.5 °F 35% 29.91 in 10.0 mi NW 13.8 mph - N/A   Scattered Clouds
6:14 PM 78.3 °F 52.9 °F 41% 29.90 in 10.0 mi NE 12.7 mph 16.1 mph N/A   Mostly Cloudy
6:33 PM 77.2 °F 53.6 °F 44% 29.90 in 10.0 mi NE 8.1 mph - N/A   Scattered Clouds
6:53 PM 78.3 °F 54.0 °F 43% 29.90 in 10.0 mi NE 11.5 mph - N/A   Clear
7:14 PM 77.9 °F 53.2 °F 42% 29.90 in 10.0 mi NE 9.2 mph - N/A   Clear
7:33 PM 77.0 °F 54.5 °F 46% 29.91 in 10.0 mi NE 11.5 mph - N/A   Scattered Clouds
7:53 PM 76.5 °F 54.3 °F 46% 29.92 in 10.0 mi NNE 11.5 mph - N/A   Clear
8:14 PM 75.4 °F 54.5 °F 48% 29.92 in 10.0 mi NE 9.2 mph - N/A   Scattered Clouds
8:33 PM 74.3 °F 55.2 °F 51% 29.92 in 10.0 mi NNE 9.2 mph - N/A   Clear
8:54 PM 72.9 °F 56.8 °F 57% 29.93 in 10.0 mi NE 9.2 mph - N/A   Clear
9:13 PM 71.6 °F 56.1 °F 58% 29.93 in 10.0 mi NE 8.1 mph - N/A   Clear
9:34 PM 70.5 °F 56.1 °F 60% 29.94 in 10.0 mi NNE 5.8 mph - N/A   Clear
9:53 PM 68.9 °F 57.2 °F 66% 29.95 in 10.0 mi NNE 4.6 mph - N/A   Clear
10:13 PM 67.5 °F 57.6 °F 70% 29.97 in 10.0 mi NNE 5.8 mph - N/A   Clear
10:34 PM 66.9 °F 57.6 °F 72% 29.97 in 10.0 mi NNE 5.8 mph - N/A   Clear
10:53 PM 66.4 °F 57.7 °F 74% 29.98 in 10.0 mi NNE 4.6 mph - N/A   Clear
11:13 PM 67.8 °F 56.3 °F 67% 29.98 in 10.0 mi NNE 10.4 mph - N/A   Scattered Clouds
11:34 PM 67.3 °F 56.5 °F 68% 29.98 in 10.0 mi NE 9.2 mph - N/A   Mostly Cloudy
11:53 PM 67.3 °F 56.3 °F 68% 29.99 in 10.0 mi NE 10.4 mph - N/A   Overcast